Date,TemperatureHighF,TemperatureAvgF,TemperatureLowF,DewpointHighF,DewpointAvgF,DewpointLowF,HumidityHigh,HumidityAvg,HumidityLow,PressureMaxIn,PressureMinIn,WindSpeedMaxMPH,WindSpeedAvgMPH,GustSpeedMaxMPH,PrecipitationSumIn
2012-1-1,61.7,55.4,49.5,47.1,43.0,34.0,82,64,47,30.19,30.08,25,4,25,0.00
2012-1-2,59.3,52.1,47.8,51.8,48.6,44.3,95,88,74,30.30,30.15,12,1,12,0.00
2012-1-3,62.5,51.9,45.9,50.8,46.9,43.3,99,84,54,30.36,30.25,13,1,13,0.01
2012-1-4,69.0,55.2,44.6,46.7,43.3,39.3,93,67,35,30.38,30.26,13,2,13,0.00
2012-1-5,61.4,52.5,46.6,52.1,45.8,40.3,94,79,59,30.31,30.14,9,1,9,0.00
2012-1-6,57.2,49.8,45.5,47.9,45.5,43.3,95,86,70,30.20,30.10,10,1,10,0.00
2012-1-7,67.5,56.6,46.4,44.1,32.1,17.9,83,46,19,30.22,30.10,21,4,21,0.00
2012-1-8,64.9,57.1,52.5,31.3,26.1,20.8,43,31,23,30.22,30.14,18,2,18,0.00
2012-1-9,63.9,54.2,44.5,43.4,38.4,30.8,72,56,41,30.24,30.13,11,2,11,0.00
2012-1-10,64.2,53.1,43.3,41.3,36.9,31.3,82,56,35,30.17,30.05,16,2,16,0.00
2012-1-11,67.0,52.6,42.4,43.6,35.5,31.4,76,54,30,30.13,30.00,8,1,8,0.00
2012-1-12,65.7,55.6,42.8,36.8,29.7,26.3,70,40,23,30.11,30.02,18,2,18,0.00
2012-1-13,66.5,54.8,41.5,39.8,33.2,27.1,68,45,32,30.21,30.10,22,3,22,0.00
2012-1-14,66.6,51.4,42.6,44.6,39.0,34.3,90,64,35,30.19,30.06,8,0,8,0.00
2012-1-15,52.7,47.2,42.0,44.9,39.6,27.9,93,76,57,30.16,29.99,18,3,18,0.00
2012-1-16,50.0,42.5,37.2,33.9,28.1,18.3,77,58,30,30.32,30.16,14,2,14,0.00
2012-1-17,50.4,42.7,36.0,37.8,33.7,29.0,82,71,53,30.42,30.32,11,1,11,0.00
2012-1-18,52.1,45.1,37.3,42.3,38.2,33.6,89,77,65,30.41,30.25,8,1,8,0.00
2012-1-19,51.3,47.9,44.2,49.0,43.9,40.5,96,87,75,30.25,30.02,19,3,19,0.18
2012-1-20,56.5,54.0,50.1,55.9,52.8,48.9,99,96,92,30.02,29.68,26,6,27,2.01
2012-1-21,54.2,30.5,45.6,99.9,64.7,39.2,98,46,60,30.15,0.00,21,-388,21,0.00
2012-1-22,52.3,48.7,45.1,49.3,44.6,40.3,94,86,75,30.17,29.77,24,4,24,0.38
2012-1-23,54.2,50.4,46.1,53.3,48.9,44.7,97,95,90,30.15,29.64,25,3,25,0.03
2012-1-24,55.4,49.6,44.7,49.8,47.1,43.6,97,92,79,30.42,30.15,9,1,9,0.01
2012-1-25,65.5,56.0,48.8,54.1,50.8,46.5,94,84,65,30.43,30.31,11,1,11,0.01
2012-1-26,56.9,53.8,50.4,54.7,52.6,49.8,100,96,91,30.34,30.22,12,2,12,0.00
2012-1-27,66.8,54.4,47.1,52.1,38.0,22.6,98,59,19,30.27,30.18,13,1,13,0.00
2012-1-28,64.1,54.2,44.8,40.6,28.6,21.0,67,39,22,30.33,30.21,17,2,17,0.00
2012-1-29,64.5,54.9,49.2,47.8,44.9,39.4,80,70,50,30.26,30.11,17,2,17,0.00
2012-1-30,57.0,52.2,48.4,50.1,47.0,42.4,93,83,68,30.11,30.00,13,1,13,0.00
2012-1-31,55.7,49.9,46.2,48.9,46.7,43.1,95,89,78,30.19,30.05,13,1,13,0.00
2012-2-1,58.9,51.9,46.4,51.7,47.7,43.6,97,86,68,30.27,30.17,14,2,14,0.01
2012-2-2,66.0,52.9,44.6,48.5,42.0,32.2,94,70,30,30.23,29.95,14,1,14,0.00
2012-2-3,60.7,53.2,44.2,46.6,38.3,28.4,81,58,37,30.05,29.98,20,3,20,0.00
2012-2-4,64.7,54.7,44.1,43.6,38.2,32.6,85,55,38,30.09,30.02,21,3,21,0.00
2012-2-5,64.5,56.5,46.3,37.6,34.9,31.3,68,45,30,30.10,29.96,15,2,16,0.00
2012-2-6,63.9,55.4,50.3,48.7,40.1,35.0,91,57,45,29.97,29.74,23,2,23,0.14
2012-2-7,57.2,53.3,50.5,50.5,48.4,45.2,94,84,70,30.10,29.74,9,2,16,0.01
2012-2-8,64.3,55.3,45.6,52.6,49.1,44.4,97,81,59,30.23,30.08,8,1,13,0.01
2012-2-9,68.8,56.6,46.1,53.0,49.3,43.6,94,78,55,30.26,30.11,12,1,12,0.00
2012-2-10,57.8,53.1,49.5,55.2,49.8,45.1,97,89,77,30.18,30.06,17,2,17,0.04
2012-2-11,56.7,52.0,49.1,50.8,49.0,45.4,97,90,79,30.07,29.98,11,1,11,0.04
2012-2-12,54.7,50.1,46.2,48.8,46.1,40.4,94,87,72,30.06,29.95,16,3,16,0.13
2012-2-13,55.5,48.6,44.9,47.2,43.6,40.4,96,83,63,30.00,29.89,17,2,17,0.07
2012-2-14,56.6,48.7,42.9,46.4,41.8,39.1,92,78,62,30.11,29.98,14,2,14,0.07
2012-2-15,59.0,50.6,41.8,47.9,31.9,22.9,95,53,26,30.15,30.04,22,4,22,0.03
2012-2-16,65.9,53.7,46.8,47.0,34.2,22.6,93,52,20,30.25,30.15,15,3,15,0.00
2012-2-17,58.9,51.5,45.3,51.4,47.6,42.3,95,87,67,30.26,30.16,13,2,13,0.00
2012-2-18,60.1,51.8,45.3,49.8,43.9,36.4,97,76,49,30.18,30.08,16,2,16,0.01
2012-2-19,53.9,47.4,43.5,43.7,38.2,33.4,85,71,51,30.15,30.05,15,2,15,0.00
2012-2-20,59.2,51.4,47.4,48.8,45.9,43.3,92,82,63,30.20,30.07,10,1,10,0.00
2012-2-21,60.9,52.3,45.8,51.8,48.4,44.5,97,87,70,30.30,30.20,8,1,8,0.00
2012-2-22,76.1,61.4,52.0,52.7,48.6,41.4,92,66,31,30.27,30.07,10,1,10,0.00
2012-2-23,76.0,63.0,51.4,48.4,35.7,17.5,78,44,11,30.08,29.94,20,4,20,0.00
2012-2-24,68.8,59.1,51.0,48.6,34.4,19.2,81,45,19,30.18,29.96,19,2,19,0.00
2012-2-25,60.4,51.3,45.6,44.9,36.9,30.3,81,59,34,30.33,30.17,20,3,20,0.00
2012-2-26,52.9,45.8,39.1,37.1,34.3,23.3,83,66,34,30.18,29.83,15,2,15,0.00
2012-2-27,54.1,45.2,38.3,39.7,36.2,31.3,90,72,43,29.97,29.79,16,2,16,0.00
2012-2-28,53.3,47.2,39.9,44.8,37.4,33.8,89,70,50,30.23,29.96,23,4,23,0.02
2012-2-29,53.2,49.4,45.3,49.6,44.4,40.4,96,84,65,30.24,30.02,24,5,24,0.46
2012-3-1,57.1,49.0,44.4,50.6,44.2,39.4,96,84,61,30.25,30.16,20,3,20,0.07
2012-3-2,63.4,51.4,43.1,41.2,35.7,25.8,88,59,28,30.35,30.24,11,2,11,0.07
2012-3-3,70.0,56.3,44.2,42.4,37.8,32.9,82,52,30,30.34,30.22,16,2,16,0.00
2012-3-4,74.2,59.6,48.4,49.6,43.7,34.3,91,58,32,30.22,30.03,14,2,14,0.00
2012-3-5,55.9,49.5,44.5,49.2,46.5,43.6,98,90,78,30.09,29.98,21,3,21,0.00
2012-3-6,57.9,50.0,44.8,47.2,34.6,23.0,92,59,29,30.05,29.92,24,4,24,0.01
2012-3-7,64.3,51.2,42.6,42.6,28.7,14.9,83,46,16,30.18,30.05,17,2,17,0.00
2012-3-8,68.5,54.4,42.8,44.1,37.0,27.5,93,56,23,30.32,30.17,11,1,11,0.00
2012-3-9,70.6,54.2,44.0,47.7,39.9,28.7,82,61,29,30.32,30.12,12,1,12,0.00
2012-3-10,56.2,49.4,44.0,49.4,44.6,40.8,91,84,75,30.14,29.98,14,3,14,0.00
2012-3-11,55.7,50.2,44.1,48.1,44.5,39.1,90,81,70,30.07,29.99,15,3,15,0.00
2012-3-12,57.7,50.7,43.1,46.9,42.7,38.3,92,75,50,30.04,29.92,19,2,23,0.00
2012-3-13,53.9,52.5,51.5,51.8,50.4,47.4,96,93,79,29.97,29.85,23,6,23,1.17
2012-3-14,56.3,54.4,52.7,55.4,53.7,51.5,98,98,96,30.10,29.93,17,4,17,1.24
2012-3-15,57.7,54.8,53.6,57.3,54.3,52.9,99,98,97,30.14,30.04,17,3,17,0.05
2012-3-16,55.9,53.6,47.8,55.6,52.6,45.0,99,96,88,30.04,29.71,19,4,19,1.01
2012-3-17,51.7,46.3,42.2,44.9,41.3,37.0,96,84,59,29.72,29.51,19,2,19,1.01
2012-3-18,53.0,46.8,42.7,39.1,35.0,26.8,84,65,38,29.93,29.63,23,4,23,0.00
2012-3-19,54.4,47.4,39.7,39.2,34.7,28.8,81,62,39,30.09,29.93,12,1,12,0.00
2012-3-20,61.2,53.7,48.7,49.1,42.4,36.4,89,66,52,30.18,30.08,10,1,10,0.00
2012-3-21,65.3,54.8,48.1,53.6,50.0,46.1,97,85,60,30.17,29.96,12,2,12,0.00
2012-3-22,59.9,52.7,46.1,51.9,42.3,21.1,97,72,24,30.01,29.92,17,2,17,0.00
2012-3-23,57.2,50.0,42.4,43.5,39.0,33.8,86,67,44,30.07,29.86,16,3,16,0.00
2012-3-24,52.9,46.9,43.1,45.5,41.7,31.1,95,84,44,29.90,29.80,21,1,21,1.25
2012-3-25,57.6,48.7,42.2,46.6,43.1,40.4,97,82,57,29.89,29.76,11,1,11,1.61
2012-3-26,58.9,50.6,42.9,44.0,41.6,38.7,92,72,48,30.08,29.88,22,3,22,0.00
2012-3-27,57.0,53.0,50.5,52.4,46.9,42.1,97,81,61,30.01,29.85,26,6,26,1.42
2012-3-28,61.4,55.2,50.9,53.7,52.0,49.4,97,90,67,30.10,29.93,18,4,18,1.44
2012-3-29,60.7,53.6,50.8,52.6,50.5,48.7,96,90,74,30.13,30.06,14,2,14,0.00
2012-3-30,60.4,56.2,53.1,54.9,53.0,51.4,96,89,80,30.10,29.88,16,3,16,0.00
2012-3-31,58.6,53.9,48.1,54.0,48.4,43.7,93,82,64,30.02,29.67,27,7,27,0.18
2012-4-1,59.9,51.4,45.4,45.0,40.5,35.3,88,68,46,30.27,30.02,16,3,18,0.19
2012-4-2,65.2,53.6,45.5,47.5,42.3,37.3,87,68,39,30.25,30.04,12,2,12,0.00
2012-4-3,61.4,53.1,47.9,51.8,47.0,41.1,93,80,62,30.09,30.00,16,2,16,0.01
2012-4-4,58.7,50.5,44.3,42.9,38.8,32.3,89,66,39,30.19,30.09,17,2,18,0.01
2012-4-5,57.4,48.2,41.3,39.2,35.3,30.1,78,62,40,30.17,30.08,19,2,19,0.00
2012-4-6,60.9,49.3,39.8,41.5,36.6,19.0,87,64,21,30.27,30.15,12,1,12,0.00
2012-4-7,66.8,52.9,42.0,45.0,38.2,30.0,83,59,35,30.16,30.01,12,2,14,0.00
2012-4-8,62.9,51.8,43.0,47.7,42.8,31.1,87,73,45,30.06,29.98,13,1,13,0.00
2012-4-9,66.5,53.7,44.9,47.8,42.8,30.4,90,70,27,30.01,29.81,16,2,17,0.00
2012-4-10,55.1,53.0,51.5,53.0,49.6,42.5,97,89,66,29.88,29.79,11,2,12,0.45
2012-4-11,58.2,53.6,48.8,51.6,48.7,46.4,98,84,67,29.96,29.78,22,5,22,0.62
2012-4-12,59.2,53.0,47.9,49.5,45.9,39.1,95,78,52,30.02,29.77,27,5,28,0.67
2012-4-13,57.4,50.5,45.8,48.0,43.5,39.8,96,78,55,29.86,29.69,18,3,18,1.09
2012-4-14,63.2,52.9,46.1,49.3,42.8,38.2,89,70,46,30.11,29.86,13,2,13,0.00
2012-4-15,57.9,53.0,50.3,51.6,49.0,47.6,92,86,77,30.22,30.11,17,4,17,0.00
2012-4-16,61.4,54.1,48.3,51.1,48.6,46.0,93,83,68,30.23,30.16,14,3,15,0.00
2012-4-17,61.3,55.0,51.7,54.0,50.8,47.7,96,86,72,30.18,30.06,14,2,14,0.00
2012-4-18,69.2,57.3,50.0,55.0,50.2,43.3,92,78,52,30.15,30.08,12,2,12,0.00
2012-4-19,70.1,60.7,54.3,59.8,55.5,51.8,95,84,68,30.15,30.04,12,1,12,0.00
2012-4-20,77.8,64.5,55.3,60.6,56.6,51.4,96,77,54,30.06,29.93,12,1,12,0.00
2012-4-21,80.5,66.2,56.3,60.7,55.6,51.3,89,71,48,29.97,29.81,9,1,9,0.00
2012-4-22,60.9,55.7,51.7,55.4,52.8,50.5,97,90,82,29.92,29.84,23,4,23,0.00
2012-4-23,63.4,57.6,53.7,54.2,52.5,51.4,94,84,69,29.98,29.88,26,7,26,0.00
2012-4-24,68.8,60.4,56.9,56.8,54.4,53.1,90,81,63,30.03,29.94,14,2,14,0.00
2012-4-25,69.3,60.2,55.3,57.5,54.6,52.0,97,83,60,30.00,29.75,13,1,13,0.14
2012-4-26,62.2,56.3,51.4,56.0,47.7,37.7,97,75,45,30.18,29.75,16,4,16,0.22
2012-4-27,67.3,56.8,47.8,51.2,44.5,37.4,82,65,38,30.22,30.11,12,2,12,0.00
2012-4-28,69.1,59.4,50.8,54.9,50.4,45.0,87,73,56,30.12,29.87,15,2,15,0.00
2012-4-29,67.2,58.8,53.1,56.2,53.2,50.6,92,82,63,29.90,29.85,16,2,16,0.00
2012-4-30,70.3,58.6,51.8,58.0,51.9,48.2,93,80,55,29.95,29.88,19,3,19,0.00
2012-5-1,66.2,56.5,50.2,50.9,47.5,42.6,93,74,45,29.92,29.85,15,3,15,0.00
2012-5-2,61.4,53.0,47.4,49.2,45.4,43.3,89,76,58,29.96,29.87,21,3,21,0.00
2012-5-3,58.5,54.2,50.1,55.2,50.8,44.4,96,88,81,30.08,29.94,16,4,17,0.03
2012-5-4,64.8,56.2,50.9,52.7,46.5,43.4,96,72,49,30.19,30.07,15,2,15,0.03
2012-5-5,73.4,60.1,49.8,52.1,46.1,36.6,83,63,27,30.20,30.03,13,2,13,0.00
2012-5-6,81.3,65.8,53.1,53.1,45.5,31.8,84,52,18,30.04,29.96,16,2,16,0.00
2012-5-7,81.5,63.0,51.5,54.7,50.9,46.5,91,68,31,30.00,29.92,15,2,15,0.00
2012-5-8,72.2,58.6,50.6,56.0,52.0,49.0,95,80,55,29.95,29.88,17,2,17,0.00
2012-5-9,63.6,55.7,50.7,52.8,50.0,47.2,93,82,67,29.94,29.86,16,4,16,0.00
2012-5-10,73.7,58.6,48.6,53.0,49.1,45.9,92,73,39,29.91,29.82,15,2,15,0.00
2012-5-11,70.5,57.9,50.5,55.3,50.4,46.8,95,78,54,29.96,29.84,20,3,20,0.00
2012-5-12,63.2,54.1,49.0,53.7,50.4,47.8,97,88,67,30.04,29.96,23,5,23,0.00
2012-5-13,60.7,54.3,49.8,51.6,49.8,48.1,95,85,70,30.08,30.02,21,7,21,0.00
2012-5-14,66.1,58.8,53.3,53.3,50.7,47.8,92,75,54,30.08,30.01,15,2,15,0.00
2012-5-15,60.2,54.5,50.8,52.8,50.6,48.7,94,87,76,30.04,29.97,21,4,21,0.00
2012-5-16,57.7,52.4,49.9,52.5,50.0,48.6,97,92,82,30.02,29.92,21,6,21,0.00
2012-5-17,66.5,55.5,50.1,53.6,49.5,46.5,96,82,56,29.94,29.81,24,6,24,0.00
2012-5-18,66.7,56.1,49.9,52.2,48.6,45.4,88,76,52,29.97,29.88,16,4,16,0.00
2012-5-19,64.8,56.4,48.6,52.2,48.6,45.7,91,76,55,29.98,29.90,18,3,18,0.00
2012-5-20,67.8,58.9,52.4,54.7,50.5,46.5,91,75,53,29.99,29.90,21,3,21,0.00
2012-5-21,64.3,56.4,50.9,56.1,52.9,49.7,96,89,74,30.08,29.98,20,5,20,0.00
2012-5-22,71.0,60.4,53.4,56.3,52.8,48.1,97,78,46,30.10,30.02,16,3,16,0.00
2012-5-23,71.6,61.0,53.2,50.7,48.3,43.9,86,65,40,30.02,29.89,14,2,16,0.00
2012-5-24,70.5,60.0,51.6,49.5,45.9,43.5,76,60,45,29.90,29.70,23,3,23,0.00
2012-5-25,63.2,55.8,49.0,50.0,43.8,38.9,86,65,43,29.82,29.70,15,2,16,0.01
2012-5-26,62.9,55.3,50.7,52.3,49.5,47.2,91,81,66,30.06,29.80,18,4,19,0.01
2012-5-27,60.7,55.1,51.9,51.8,49.8,48.1,92,83,72,30.14,30.05,14,3,17,0.00
2012-5-28,62.9,56.4,51.2,52.1,49.7,43.3,95,79,62,30.06,29.99,15,3,16,0.00
2012-5-29,63.0,55.5,50.0,52.3,49.3,46.5,92,80,64,30.05,29.99,16,5,18,0.00
2012-5-30,63.2,55.9,51.1,53.7,50.7,48.2,92,83,69,30.09,30.00,19,4,21,0.00
2012-5-31,72.5,59.2,50.7,56.1,52.1,48.1,92,79,54,30.02,29.84,14,4,16,0.00
2012-6-1,67.3,58.9,53.7,56.3,53.8,51.8,95,84,67,29.85,29.75,16,4,18,0.00
2012-6-2,67.8,58.0,51.9,57.4,53.6,50.1,95,86,67,29.94,29.80,19,6,23,0.00
2012-6-3,63.1,56.8,50.6,54.5,51.9,49.2,96,84,71,29.94,29.86,22,5,22,0.00
2012-6-4,61.2,56.8,52.2,56.2,51.8,45.9,96,84,66,30.10,29.87,18,4,19,0.01
2012-6-5,66.8,57.6,49.8,47.1,45.2,41.3,86,65,42,30.17,30.09,15,2,15,0.01
2012-6-6,70.3,59.3,50.4,51.1,46.7,43.8,80,64,44,30.10,29.94,15,2,15,0.00
2012-6-7,70.8,59.9,51.5,56.5,51.8,47.3,90,75,57,30.00,29.94,15,4,17,0.00
2012-6-8,73.0,60.5,52.6,52.8,48.3,42.8,93,68,36,29.97,29.89,13,3,15,0.00
2012-6-9,75.3,63.2,50.6,52.2,45.0,36.1,77,54,26,29.98,29.84,14,1,14,0.00
2012-6-10,84.3,70.6,58.3,53.7,46.6,32.9,73,45,17,29.87,29.82,14,2,14,0.00
2012-6-11,75.3,63.7,57.2,55.9,50.6,44.1,83,64,36,29.93,29.85,15,2,20,0.00
2012-6-12,73.5,62.0,53.8,58.0,53.7,49.9,90,76,54,29.95,29.87,15,3,16,0.00
2012-6-13,62.2,56.8,51.6,53.9,51.4,49.4,93,83,71,29.89,29.73,17,5,19,0.00
2012-6-14,67.5,58.8,52.4,54.1,50.9,47.9,90,76,59,29.80,29.73,15,5,18,0.00
2012-6-15,67.8,58.7,51.8,53.7,50.8,47.2,87,76,59,29.81,29.74,16,4,17,0.00
2012-6-16,83.3,67.0,54.5,60.8,55.0,51.0,90,68,45,29.83,29.73,13,2,17,0.00
2012-6-17,64.5,58.9,53.4,56.0,53.9,51.9,95,84,73,29.88,29.76,21,5,23,0.00
2012-6-18,57.7,54.2,51.0,52.1,50.7,48.8,96,89,79,29.90,29.81,23,8,23,0.00
2012-6-19,69.7,58.2,51.6,55.1,51.7,49.0,92,80,59,29.91,29.81,18,4,19,0.00
2012-6-20,73.0,60.5,53.9,58.4,53.2,50.6,93,78,53,29.83,29.78,21,3,21,0.00
2012-6-21,61.4,55.1,50.8,53.3,50.6,48.7,94,85,73,29.94,29.79,20,7,22,0.00
2012-6-22,62.2,55.5,51.4,54.0,51.3,47.3,94,86,73,29.97,29.84,16,4,16,0.00
2012-6-23,65.7,58.3,51.5,52.1,49.3,46.6,88,73,55,29.93,29.83,17,3,18,0.00
2012-6-24,65.7,58.0,49.9,52.0,48.5,44.3,89,72,52,30.03,29.92,15,3,17,0.00
2012-6-25,65.3,59.2,52.5,54.0,51.1,44.9,89,75,64,30.07,30.01,18,3,19,0.00
2012-6-26,73.9,61.7,51.0,53.2,49.4,45.8,88,66,43,30.04,29.87,12,1,13,0.00
2012-6-27,67.3,60.4,54.5,55.3,53.2,48.8,91,78,60,29.93,29.85,20,3,20,0.00
2012-6-28,69.7,60.2,55.0,58.2,54.7,52.2,94,83,67,30.06,29.92,18,4,18,0.00
2012-6-29,68.5,60.8,55.5,58.9,56.4,54.0,97,86,69,30.08,30.00,16,4,16,0.00
2012-6-30,69.7,62.2,56.6,62.4,58.6,55.3,96,89,77,30.01,29.91,17,4,17,0.00
2012-7-1,66.3,60.9,57.7,60.6,57.7,55.1,95,89,81,29.95,29.85,18,4,19,0.00
2012-7-2,64.2,59.3,55.7,56.6,54.7,51.8,93,85,74,29.88,29.82,21,6,23,0.00
2012-7-3,68.8,59.2,53.1,56.5,53.0,50.5,91,81,63,29.89,29.80,18,5,19,0.00
2012-7-4,64.5,57.4,54.1,55.4,52.8,51.1,93,85,72,29.87,29.79,22,5,23,0.00
2012-7-5,65.0,57.9,53.7,55.1,52.4,50.5,92,82,67,29.96,29.86,18,6,20,0.00
2012-7-6,63.4,57.7,53.5,55.8,53.2,51.3,93,85,75,30.00,29.95,18,4,20,0.00
2012-7-7,69.0,58.3,53.2,56.9,53.7,51.5,96,86,64,29.97,29.90,19,4,21,0.00
2012-7-8,61.9,56.6,52.3,55.7,53.1,50.6,95,88,80,30.01,29.95,18,6,20,0.00
2012-7-9,64.3,57.1,52.8,56.1,53.2,51.3,96,88,74,30.04,29.93,17,5,19,0.00
2012-7-10,68.4,58.3,52.3,57.0,53.4,50.8,96,85,64,29.94,29.81,16,4,19,0.00
2012-7-11,70.8,57.8,52.6,56.8,53.3,51.1,96,86,61,29.87,29.77,19,4,20,0.00
2012-7-12,62.9,56.2,52.4,55.8,52.7,51.1,97,89,76,29.84,29.79,19,5,21,0.00
2012-7-13,59.7,54.9,51.8,54.4,52.0,49.8,94,90,82,29.91,29.82,21,7,27,0.00
2012-7-14,62.2,55.8,52.9,54.7,52.5,51.1,95,89,77,29.94,29.87,18,6,21,0.00
2012-7-15,63.1,57.0,53.3,56.6,54.0,51.8,96,90,79,29.90,29.82,19,6,24,0.00
2012-7-16,61.0,56.0,53.0,54.7,53.2,51.9,97,91,75,29.91,29.80,25,9,25,0.01
2012-7-17,65.8,59.3,55.3,54.8,53.2,50.8,97,81,63,29.99,29.88,15,4,19,0.01
2012-7-18,66.8,59.5,55.1,55.9,53.5,52.0,92,81,64,30.00,29.94,14,2,16,0.00
2012-7-19,68.2,61.0,54.4,58.8,55.7,53.1,96,84,69,30.02,29.94,12,2,14,0.00
2012-7-20,72.7,63.7,57.3,59.6,57.2,54.9,93,80,62,30.06,29.95,15,3,16,0.00
2012-7-21,78.0,64.5,56.4,61.0,56.9,53.6,94,78,53,29.97,29.84,15,3,17,0.00
2012-7-22,64.3,58.6,54.4,56.7,54.4,52.6,95,87,75,29.91,29.83,17,4,17,0.00
2012-7-23,64.3,58.6,54.8,55.9,54.1,52.6,93,86,74,29.92,29.87,23,8,24,0.00
2012-7-24,65.8,59.7,55.8,56.4,54.3,52.8,91,83,70,29.95,29.90,15,4,17,0.00
2012-7-25,64.5,59.1,55.5,56.3,54.3,52.6,91,85,73,29.99,29.92,19,5,20,0.00
2012-7-26,63.1,57.1,54.0,56.1,53.5,52.2,94,88,77,29.98,29.92,18,6,22,0.00
2012-7-27,62.5,56.4,53.2,56.2,53.3,51.1,95,90,78,30.01,29.95,17,7,19,0.00
2012-7-28,68.4,59.1,54.4,58.7,54.8,52.6,95,86,68,30.04,29.97,18,5,20,0.00
2012-7-29,63.9,57.9,53.7,56.7,54.2,52.1,95,88,76,30.03,29.94,20,5,22,0.00
2012-7-30,73.3,61.4,55.1,59.8,55.9,53.0,95,83,62,29.96,29.85,16,4,17,0.00
2012-7-31,64.7,58.3,55.1,56.4,54.3,52.8,93,87,74,29.98,29.89,18,4,19,0.00
2012-8-1,64.1,57.4,54.6,56.3,53.8,52.3,94,89,74,30.04,29.95,17,5,21,0.00
2012-8-2,65.3,57.2,53.5,56.6,53.8,52.0,95,89,73,29.98,29.87,19,4,21,0.00
2012-8-3,61.7,55.5,52.6,55.5,52.9,51.4,96,92,78,29.89,29.81,18,6,20,0.00
2012-8-4,61.2,56.4,52.1,57.8,54.3,50.9,97,93,85,29.96,29.83,17,4,17,0.00
2012-8-5,66.5,60.4,56.7,58.8,56.7,53.7,96,88,74,30.06,29.94,14,3,17,0.00
2012-8-6,71.3,61.8,56.0,58.8,55.4,52.9,90,80,62,30.10,30.01,16,3,16,0.00
2012-8-7,73.8,62.3,55.4,57.7,55.1,53.3,94,79,53,30.04,29.94,15,4,19,0.00
2012-8-8,70.7,61.0,54.6,57.7,54.9,52.1,93,81,61,29.99,29.89,14,4,15,0.00
2012-8-9,69.0,59.6,54.2,57.9,54.8,52.7,96,85,67,29.93,29.82,17,3,19,0.00
2012-8-10,65.8,58.5,54.0,56.9,54.3,52.3,95,86,71,29.83,29.74,21,3,21,0.00
2012-8-11,67.3,57.5,53.3,57.5,53.9,51.6,97,89,69,29.81,29.72,19,4,20,0.00
2012-8-12,64.8,56.6,52.4,56.2,53.4,51.5,97,90,72,29.85,29.77,15,4,17,0.00
2012-8-13,66.3,57.5,53.3,56.4,53.9,52.1,97,88,70,29.84,29.76,20,4,20,0.00
2012-8-14,64.3,57.6,53.3,58.0,54.9,51.8,99,91,78,29.82,29.77,18,4,23,0.00
2012-8-15,63.4,58.1,55.3,56.0,54.6,53.5,97,89,77,29.88,29.78,16,4,18,0.00
2012-8-16,65.3,58.6,55.3,58.1,55.4,53.8,96,90,78,29.95,29.86,21,4,22,0.00
2012-8-17,68.7,59.9,54.3,58.8,55.8,53.1,97,87,71,29.98,29.88,19,4,19,0.00
2012-8-18,65.8,59.8,55.5,57.2,55.4,53.1,93,86,74,29.95,29.88,17,5,17,0.00
2012-8-19,64.1,57.1,53.2,56.9,53.8,51.7,96,89,77,29.96,29.86,18,6,19,0.00
2012-8-20,61.1,55.8,52.4,55.1,52.9,50.9,95,90,80,29.93,29.84,18,5,19,0.00
2012-8-21,60.9,56.9,53.2,56.0,53.7,51.7,95,90,80,29.92,29.83,21,6,24,0.00
2012-8-22,62.4,56.6,53.5,56.7,54.0,52.1,96,91,81,29.93,29.85,20,5,20,0.00
2012-8-23,62.9,56.6,52.5,56.8,54.3,51.0,97,93,81,29.94,29.84,15,5,16,0.00
2012-8-24,63.2,57.0,54.4,55.8,53.6,52.5,95,89,75,29.89,29.82,17,5,19,0.00
2012-8-25,59.9,55.3,52.5,54.5,52.7,51.2,97,92,80,29.87,29.80,20,7,20,0.00
2012-8-26,67.5,60.0,54.9,55.3,53.3,51.6,92,80,63,29.97,29.83,17,4,22,0.00
2012-8-27,73.8,63.0,55.1,61.7,57.1,52.8,94,82,65,30.03,29.92,13,2,16,0.00
2012-8-28,77.3,64.9,56.8,58.8,56.7,54.3,95,77,52,30.01,29.91,12,2,15,0.00
2012-8-29,78.0,64.1,55.1,58.9,55.6,52.8,94,76,51,29.92,29.76,12,2,14,0.00
2012-8-30,60.7,56.4,54.0,55.3,53.7,52.3,96,91,81,29.83,29.75,19,5,21,0.00
2012-8-31,64.1,57.4,54.4,55.9,53.3,51.6,95,87,73,29.94,29.82,18,5,19,0.00
2012-9-1,62.8,57.0,53.0,54.7,52.9,51.0,96,87,73,30.02,29.93,13,4,16,0.00
2012-9-2,71.3,59.1,52.3,58.8,54.6,51.1,98,86,62,29.97,29.87,13,2,15,0.00
2012-9-3,70.8,58.9,52.6,57.6,54.2,51.1,98,86,61,29.96,29.88,16,3,17,0.00
2012-9-4,61.4,55.7,51.5,55.4,53.0,50.3,97,91,77,30.01,29.93,16,4,20,0.00
2012-9-5,63.7,56.6,53.3,55.9,53.6,52.1,96,90,73,29.99,29.91,16,3,17,0.00
2012-9-6,64.4,57.8,54.2,55.0,53.0,51.1,94,85,71,30.00,29.93,15,2,17,0.00
2012-9-7,68.5,58.8,51.2,55.6,52.8,49.1,94,81,62,30.08,29.98,17,3,17,0.00
2012-9-8,65.8,59.1,54.6,55.8,53.3,51.1,93,82,67,30.05,29.93,16,4,18,0.00
2012-9-9,70.4,60.3,53.2,57.9,53.6,50.9,93,80,63,29.98,29.86,16,4,17,0.00
2012-9-10,72.6,60.2,55.1,58.8,54.9,52.8,93,84,62,29.92,29.79,15,3,16,0.00
2012-9-11,65.7,58.1,54.4,57.1,54.2,51.8,95,88,71,29.94,29.81,20,4,21,0.00
2012-9-12,67.1,58.0,54.1,57.8,55.0,53.0,97,90,71,30.07,29.93,15,4,17,0.00
2012-9-13,55.9,55.2,54.4,55.3,53.8,53.3,100,95,93,30.05,30.01,12,2,15,0.00
2012-9-14,64.3,57.4,54.1,56.8,54.2,52.6,96,90,76,30.09,29.99,18,4,22,0.00
2012-9-15,64.4,56.9,52.6,56.0,53.0,50.9,95,87,73,30.09,29.97,16,3,19,0.00
2012-9-16,63.1,55.2,51.7,55.2,52.1,50.3,96,90,74,30.04,29.95,18,4,19,0.00
2012-9-17,61.9,56.3,52.8,54.3,52.0,50.4,94,86,74,30.05,29.97,16,4,17,0.00
2012-9-18,65.5,57.0,51.2,55.3,51.4,48.0,92,82,65,30.10,29.99,15,3,18,0.00
2012-9-19,66.0,58.4,54.1,55.4,53.0,50.9,91,83,67,30.09,30.00,16,5,18,0.00
2012-9-20,69.5,58.9,53.0,54.9,52.4,50.4,92,80,58,30.05,29.95,14,4,16,0.00
2012-9-21,67.9,59.2,52.5,56.0,52.9,50.2,94,81,60,29.98,29.86,14,3,18,0.00
2012-9-22,72.1,59.5,53.1,56.7,52.9,50.8,94,80,54,29.92,29.84,17,2,20,0.00
2012-9-23,69.4,57.5,52.3,58.0,53.7,51.1,97,88,65,29.94,29.87,17,3,20,0.00
2012-9-24,67.3,57.8,52.5,57.3,54.1,50.8,96,88,70,29.95,29.85,16,4,18,0.00
2012-9-25,61.8,55.7,53.0,56.5,53.5,51.5,96,93,82,29.91,29.83,17,4,21,0.00
2012-9-26,61.2,55.8,52.7,54.9,52.7,51.2,96,90,79,29.88,29.82,14,4,14,0.00
2012-9-27,68.4,56.4,52.4,58.1,53.4,51.2,98,91,68,29.92,29.81,17,3,18,0.00
2012-9-28,58.1,54.3,51.2,55.0,52.9,50.3,100,95,89,29.96,29.85,17,4,18,0.00
2012-9-29,66.8,57.0,52.6,57.8,53.9,51.5,97,90,71,30.03,29.94,15,3,15,0.00
2012-9-30,87.5,65.7,51.8,61.4,55.5,50.8,98,74,38,30.04,29.92,8,1,9,0.00
2012-10-1,94.0,74.2,58.4,57.5,50.4,27.8,84,48,14,29.98,29.85,8,1,9,0.00
2012-10-2,96.5,77.7,65.8,58.0,48.6,37.7,56,37,24,29.85,29.74,7,0,8,0.00
2012-10-3,74.0,65.2,58.5,60.0,55.5,46.9,92,73,41,29.97,29.76,23,3,23,0.00
2012-10-4,64.3,59.9,57.4,56.3,55.0,53.2,92,84,74,30.11,29.97,18,6,19,0.00
2012-10-5,69.4,61.1,56.5,58.9,56.0,53.7,93,84,67,30.13,30.04,13,2,14,0.00
2012-10-6,69.7,60.4,53.6,57.5,53.6,50.9,96,80,58,30.05,29.94,12,1,13,0.00
2012-10-7,65.3,58.5,52.8,56.9,53.6,50.2,93,84,73,30.00,29.91,14,2,16,0.01
2012-10-8,66.3,59.1,54.3,57.4,54.3,50.9,94,85,69,30.02,29.97,14,2,15,0.00
2012-10-9,69.5,60.6,55.6,57.1,55.0,53.2,94,83,61,30.01,29.91,10,1,11,0.00
2012-10-10,65.8,58.6,54.8,56.5,54.2,52.5,94,86,67,29.94,29.85,14,2,18,0.03
2012-10-11,56.9,55.4,54.3,53.2,52.3,51.1,92,89,84,29.95,29.86,16,4,17,0.03
2012-10-12,59.9,56.6,53.6,52.8,51.2,49.3,90,82,76,30.21,29.93,8,1,9,0.00
2012-10-13,73.2,60.2,52.1,56.6,53.1,48.6,93,79,50,30.29,30.15,9,1,13,0.00
2012-10-14,69.7,60.6,56.7,60.5,57.5,55.8,98,90,71,30.20,30.05,11,2,11,0.00
2012-10-15,73.6,63.1,56.4,61.7,58.2,55.5,98,85,63,30.07,29.94,11,1,13,0.00
2012-10-16,75.6,66.3,60.5,64.5,60.6,56.9,94,83,66,29.98,29.84,12,1,12,0.00
2012-10-17,82.7,68.3,57.0,58.6,50.2,37.4,89,57,30,29.89,29.79,11,0,11,0.00
2012-10-18,83.7,72.9,62.1,64.2,49.0,29.3,92,48,19,30.00,29.84,19,4,20,0.00
2012-10-19,65.8,61.6,56.6,62.5,59.6,54.8,97,93,83,30.03,29.90,17,4,17,0.00
2012-10-20,68.9,59.4,54.4,58.5,54.2,49.5,96,84,54,29.91,29.77,13,3,15,0.00
2012-10-21,65.7,56.4,51.8,52.0,47.9,40.0,90,75,39,29.91,29.81,14,3,16,0.05
2012-10-22,61.2,55.5,51.6,53.9,51.5,47.8,96,87,68,29.92,29.69,17,4,21,0.54
2012-10-23,61.6,55.0,50.9,52.4,48.6,41.8,95,80,49,30.04,29.91,11,2,13,0.70
2012-10-24,62.4,56.6,50.8,54.3,50.9,47.7,92,82,67,30.20,30.00,16,3,18,0.01
2012-10-25,67.5,57.8,53.0,53.6,50.7,43.5,94,79,54,30.25,30.16,12,2,15,0.05
2012-10-26,72.6,60.6,51.0,54.0,46.8,37.3,85,63,30,30.21,30.07,8,1,10,0.00
2012-10-27,78.6,65.1,57.3,58.8,56.2,53.3,89,74,45,30.07,29.92,8,1,10,0.00
2012-10-28,77.3,62.5,56.4,62.2,57.3,54.2,95,85,57,30.01,29.92,12,1,13,0.00
2012-10-29,70.3,58.7,54.6,60.3,55.9,53.6,99,91,70,30.09,30.00,11,1,13,0.00
2012-10-30,64.5,57.3,53.6,58.1,55.3,52.7,98,93,79,30.07,29.94,11,2,14,0.00
2012-10-31,61.9,58.9,56.6,58.4,56.1,54.7,98,91,79,29.99,29.94,17,3,17,0.18
2012-11-1,65.6,59.2,53.8,60.0,56.5,48.0,98,91,78,30.04,29.96,10,1,13,0.36
2012-11-2,67.2,56.8,49.6,55.0,50.3,46.4,92,80,61,30.07,30.00,9,1,10,0.00
2012-11-3,74.9,61.9,53.6,56.7,52.5,47.3,90,73,42,30.12,30.04,10,0,10,0.00
2012-11-4,79.4,65.5,55.9,60.6,55.7,52.3,90,72,43,30.18,30.10,7,0,8,0.00
2012-11-5,80.2,66.6,58.2,99.9,55.4,51.4,88,66,44,30.12,30.02,12,-8,16,0.00
2012-11-6,82.5,67.3,57.6,60.8,56.3,51.4,92,70,46,30.05,29.96,6,0,10,0.00
2012-11-7,57.4,55.3,53.6,55.1,53.6,50.7,97,94,89,30.03,29.89,17,4,17,0.00
2012-11-8,57.5,52.3,47.5,51.1,44.6,40.5,91,75,65,29.95,29.87,16,2,19,0.05
2012-11-9,57.5,49.1,42.8,45.3,41.9,37.3,94,78,48,29.97,29.88,7,1,12,0.08
2012-11-10,59.0,50.1,45.4,42.2,40.6,37.4,84,71,45,30.23,29.97,10,1,11,0.00
2012-11-11,59.6,50.2,41.8,44.5,40.4,37.9,88,70,51,30.36,30.23,10,1,11,0.00
2012-11-12,62.1,53.0,44.9,40.2,37.4,35.0,74,57,38,30.36,30.23,10,1,13,0.00
2012-11-13,67.9,57.8,47.1,42.6,39.3,35.1,83,51,34,30.25,30.06,13,2,17,0.00
2012-11-14,68.2,60.2,55.0,50.9,46.0,41.6,73,60,44,30.10,29.98,15,2,18,0.00
2012-11-15,68.7,59.1,53.5,52.8,48.3,43.2,82,68,48,30.01,29.93,10,1,13,0.00
2012-11-16,63.5,57.0,53.7,56.0,52.4,48.5,95,85,67,29.98,29.83,11,1,14,0.38
2012-11-17,60.2,57.6,52.8,57.6,55.9,50.8,97,94,88,29.98,29.76,18,3,19,0.31
2012-11-18,59.9,54.9,49.7,52.7,49.4,44.1,95,82,60,30.15,29.98,9,1,11,0.31
2012-11-19,65.7,58.7,54.3,52.4,48.0,41.5,82,68,52,30.20,30.13,11,2,13,0.00
2012-11-20,64.4,59.6,55.9,58.2,54.9,49.2,96,85,72,30.14,29.99,21,5,23,0.74
2012-11-21,63.9,57.8,50.3,59.5,53.1,45.4,98,86,52,30.19,30.01,10,1,11,1.22
2012-11-22,66.1,55.0,47.2,51.1,46.7,44.4,91,76,47,30.25,30.16,7,1,8,0.00
2012-11-23,66.0,56.1,54.2,99.9,50.6,46.1,77,68,56,30.18,30.14,6,-39,12,0.00
2012-11-24,69.0,57.1,49.1,51.3,47.9,44.2,91,73,46,30.16,30.01,10,1,12,0.00
2012-11-25,62.6,53.6,48.1,55.6,50.6,46.7,100,90,75,30.01,29.90,8,0,8,0.01
2012-11-26,59.3,51.9,47.2,56.7,49.9,46.3,98,93,82,30.05,29.94,10,0,10,0.01
2012-11-27,62.1,55.9,49.4,53.8,50.8,47.8,96,84,67,30.09,29.97,11,1,12,0.01
2012-11-28,62.4,58.0,55.4,57.5,52.5,48.1,96,82,69,30.02,29.77,26,4,26,0.24
2012-11-29,61.4,59.2,56.3,58.0,53.9,50.6,94,83,69,30.01,29.83,22,6,31,0.27
2012-11-30,60.6,58.6,56.3,58.8,57.2,55.1,98,96,88,29.98,29.75,21,5,25,0.32
2012-12-1,60.9,58.1,56.2,59.1,56.6,54.4,98,95,90,30.01,29.85,22,4,23,0.57
2012-12-2,61.5,56.4,48.7,59.9,52.5,45.5,98,87,64,30.09,29.71,32,3,32,0.06
2012-12-3,59.2,52.4,45.7,51.1,48.1,43.7,95,86,72,30.20,30.07,10,0,13,0.01
2012-12-4,59.3,56.4,51.9,54.0,51.8,49.3,93,85,73,30.21,30.11,14,1,14,0.09
2012-12-5,61.1,58.1,55.0,60.2,56.9,52.9,98,96,93,30.15,30.06,15,2,17,0.63
2012-12-6,60.5,54.9,49.2,55.2,51.4,46.9,95,88,70,30.12,30.05,5,0,6,0.00
2012-12-7,62.9,52.6,46.1,50.3,46.5,42.0,95,81,50,30.13,30.04,9,1,10,0.01
2012-12-8,59.2,50.9,44.4,47.6,44.8,40.5,94,81,54,30.10,30.02,8,1,12,0.00
2012-12-9,68.1,56.2,46.2,47.0,43.2,39.4,85,64,42,30.17,30.07,9,1,11,0.00
2012-12-10,67.3,58.6,51.7,50.3,45.7,42.8,84,63,48,30.21,30.08,18,2,22,0.00
2012-12-11,53.7,51.0,46.2,50.8,47.4,43.4,94,87,81,30.08,29.84,15,2,15,0.00
2012-12-12,55.2,49.6,44.1,49.4,43.3,39.8,95,80,57,29.88,29.81,11,1,12,0.05
2012-12-13,53.9,45.9,39.2,41.5,39.1,36.1,94,78,52,29.92,29.84,12,1,13,0.00
2012-12-14,50.9,45.9,42.1,43.4,40.6,37.8,91,82,65,30.01,29.80,7,0,8,0.00
2012-12-15,48.7,44.6,40.7,44.9,42.3,39.1,95,92,86,30.07,29.98,11,0,13,0.16
2012-12-16,54.8,50.1,45.0,52.9,47.1,42.4,96,90,80,30.09,29.99,12,2,15,0.08
2012-12-17,56.4,52.6,46.5,54.0,49.7,40.9,100,90,74,30.05,29.95,17,2,20,0.01
2012-12-18,52.6,46.1,41.2,41.0,33.7,27.5,81,63,39,30.19,29.97,16,2,19,0.01
2012-12-19,53.9,44.6,37.2,34.2,29.5,22.8,76,57,30,30.31,30.18,9,1,11,0.00
2012-12-20,58.0,50.3,41.0,41.2,34.5,24.7,62,55,44,30.21,29.96,22,4,24,0.00
2012-12-21,53.8,51.8,49.8,51.2,45.9,37.8,96,81,60,29.96,29.83,22,6,25,0.25
2012-12-22,57.7,51.7,48.5,51.1,48.5,46.3,96,89,72,30.05,29.81,24,4,24,0.09
2012-12-23,53.7,50.9,47.6,52.8,49.2,46.1,97,94,87,30.05,29.82,26,5,27,0.73
2012-12-24,55.6,48.9,44.5,46.5,42.8,38.6,96,81,61,30.20,30.00,13,1,15,0.75
2012-12-25,49.7,46.4,44.2,48.2,42.7,37.8,96,87,72,30.14,29.73,25,2,25,0.85
2012-12-26,54.4,49.2,46.8,47.5,44.6,40.9,96,84,71,30.09,29.85,13,2,15,0.91
2012-12-27,56.3,48.1,44.0,42.6,41.1,38.1,90,78,51,30.16,30.07,7,1,8,0.00
2012-12-28,48.2,44.2,40.5,41.8,40.2,37.8,91,86,76,30.17,30.02,18,2,19,0.03
2012-12-29,55.1,46.1,41.9,43.0,40.5,39.1,92,81,61,30.06,29.99,15,2,17,0.11
2012-12-30,55.5,46.4,39.9,43.8,39.3,34.5,95,78,52,30.17,30.03,12,1,12,0.00
2012-12-31,53.4,46.5,38.8,39.4,34.6,28.5,77,64,50,30.28,30.16,8,1,10,0.00
2013-1-1,52.8,46.1,41.1,38.8,34.1,28.9,82,64,44,30.26,30.19,22,3,28,0.00